Snowfall_Accumulation
0.0 0.0 0.0 0.0 0.0 0.0 0.0 0.0 0.4 0.0 0.0 0.0 0.0 0.0 0.0 0.0 0.0 0.0 0.0 0.0 0.0 0.0 0.0 0.0 0.1 0.1 0.1 0.1 0.1 0.2 0.1 0.1 0.1 0.1 0.0 0.0 0.1 0.2 0.1 0.0 0.0 0.0 0.0 0.0
0.1 0.0 0.0 0.0 0.0 0.0 0.0 0.0 0.0 0.0 0.0 0.0 0.0 0.0 0.0 0.0 0.0 0.0 0.0 0.0 0.0 0.0 0.0 0.0 0.0 0.0 0.1 0.1 0.1 0.0 0.1 0.1 0.1 0.1 0.0 0.0 0.1 0.0 0.0 0.1 0.1 0.0 0.0 0.0
0.0 0.0 0.0 0.2 0.0 0.0 0.0 0.1 0.2 0.4 0.1 0.0 0.0 0.0 0.0 0.0 0.0 0.0 0.0 0.0 0.0 0.0 0.0 0.0 0.0 0.0 0.0 0.0 0.0 0.0 0.0 0.0 0.0 0.0 0.0 0.0 0.0 0.0 0.0 0.0 0.0 0.1 0.1 0.1
0.4 0.0 0.8 0.2 0.0 0.0 0.1 0.0 0.0 0.0 0.0 0.0 0.0 0.0 0.0 0.0 0.0 0.0 0.0 0.0 0.0 0.0 0.0 0.0 0.0 0.0 0.0 0.0 0.0 0.0 0.0 0.0 0.0 0.0 0.0 0.0 0.0 0.0 0.0 0.0 0.0 0.0 0.0 0.0
3.0 0.4 0.0 0.0 0.0 0.0 0.1 0.1 0.0 0.0 0.0 0.0 0.0 0.0 0.2 0.0 0.0 0.0 0.0 0.0 0.0 0.0 0.0 0.0 0.0 0.0 0.0 0.0 0.0 0.0 0.0 0.0 0.0 0.0 0.0 0.0 0.0 0.0 0.0 0.0 0.0 0.0 0.0 0.0
0.7 0.4 2.2 0.1 0.0 0.0 0.0 0.7 0.1 0.0 0.0 0.0 0.0 0.0 0.2 0.0 0.0 0.0 0.0 0.0 0.0 0.0 0.0 0.0 0.0 0.0 0.0 0.0 0.0 0.0 0.0 0.0 0.0 0.0 0.0 0.0 0.0 0.0 0.0 0.0 0.0 0.0 0.0 0.0
1.1 4.0 1.4 0.0 0.0 0.0 0.6 1.3 0.0 0.1 0.1 0.2 1.6 0.7 0.1 0.0 0.0 0.0 0.0 0.0 0.0 0.0 0.0 0.0 0.0 0.0 0.0 0.0 0.0 0.0 0.0 0.0 0.0 0.0 0.0 0.0 0.0 0.0 0.0 0.0 0.0 0.0 0.1 0.0
2.0 3.1 5.1 0.0 0.0 0.4 0.9 0.0 0.1 0.1 0.1 0.3 0.1 0.0 0.0 0.0 0.0 0.0 0.0 0.0 0.0 0.0 0.0 0.0 0.0 0.0 0.0 0.0 0.0 0.0 0.0 0.0 0.0 0.0 0.0 0.0 0.0 0.0 0.0 0.0 0.1 0.1 0.2 0.3
1.0 1.8 0.1 0.0 0.1 0.0 0.1 0.1 0.1 0.1 0.1 0.0 0.0 0.0 0.0 0.0 0.0 0.0 0.0 0.0 0.0 0.0 0.0 0.0 0.0 0.0 0.0 0.0 0.0 0.0 0.0 0.0 0.0 0.0 0.0 0.0 0.0 0.1 0.3 0.1 0.4 0.4 1.2 1.4
0.8 0.1 0.0 0.1 0.0 0.0 0.0 0.1 0.0 0.0 0.0 0.0 0.0 0.0 0.0 0.0 0.0 0.0 0.0 0.0 0.0 0.0 0.0 0.0 0.0 0.0 0.0 0.0 0.0 0.3 1.4 3.2 1.1 2.4 0.6 0.8 1.5 1.7 2.8 3.6 3.9 4.0 4.7 6.4
0.5 0.1 0.0 0.0 0.0 0.1 0.1 0.0 0.0 0.0 0.0 0.0 0.0 0.0 0.0 0.0 0.0 0.0 0.0 0.0 0.0 0.0 0.0 0.0 0.0 0.0 0.0 0.0 0.1 0.2 1.5 3.9 4.4 6.5 7.7 4.2 3.5 5.1 4.5 4.8 5.0 6.2 4.8 5.5
2.3 0.3 0.6 0.1 0.1 0.0 0.0 0.0 0.0 0.0 0.0 0.0 0.0 0.0 0.0 0.0 0.0 0.0 0.0 0.0 0.0 0.0 0.0 0.0 0.0 0.0 0.1 0.1 0.2 0.6 1.6 4.1 5.8 7.4 10.2 11.2 7.6 8.7 nan nan nan nan nan 10.7
0.5 0.0 0.0 0.0 0.0 0.0 0.0 0.0 0.0 0.0 0.0 0.0 0.0 0.0 0.0 0.0 0.1 nan 0.3 0.3 0.3 0.4 0.3 0.1 0.1 0.1 0.2 0.2 0.4 1.0 2.0 1.7 5.4 6.6 10.3 10.8 11.9 11.8 12.7 11.6 nan nan nan nan
0.0 0.0 0.0 0.0 0.0 0.0 0.0 0.0 0.0 0.0 0.0 0.0 0.0 0.0 0.0 0.1 3.3 7.6 7.7 5.2 3.3 2.0 2.0 3.0 3.1 3.9 3.2 1.9 1.9 2.4 3.4 1.4 6.9 8.0 10.5 13.1 14.2 14.0 12.4 12.3 13.6 14.5 nan nan
0.0 0.0 0.0 0.0 0.0 0.0 0.0 0.0 0.0 0.0 0.0 0.0 0.0 0.0 0.2 0.9 2.8 4.7 7.7 8.0 8.0 8.0 7.5 6.3 6.5 11.0 9.3 8.7 9.4 9.3 7.8 9.4 10.0 12.3 12.4 13.2 12.9 13.7 13.2 12.7 13.0 13.4 12.6 9.7
0.0 0.0 0.0 0.0 0.0 0.0 0.0 0.0 0.0 0.0 0.0 0.0 0.0 0.2 0.2 0.5 1.1 2.3 4.9 6.0 6.4 10.0 12.7 15.6 12.6 14.1 11.0 9.6 8.1 6.8 8.0 3.4 5.3 7.8 9.5 12.2 11.8 12.7 13.9 14.1 13.5 13.2 12.7 13.8
0.0 0.0 0.0 0.0 0.0 0.0 0.0 0.0 0.0 0.0 0.0 0.0 0.1 0.0 0.0 0.2 0.8 5.3 8.2 7.9 10.7 13.0 13.8 9.3 10.1 6.3 5.0 5.0 3.8 4.4 5.8 5.3 1.6 5.2 6.1 7.2 9.3 11.8 12.1 12.1 13.4 12.7 16.6 18.8
0.0 0.0 0.0 0.0 0.0 0.0 0.0 0.0 0.0 0.0 0.0 0.1 1.4 6.1 7.5 7.0 5.6 10.0 13.4 12.8 8.7 8.8 7.7 7.2 5.5 3.8 3.6 3.2 2.4 2.3 3.3 3.7 4.7 6.4 6.3 8.2 8.1 8.4 9.0 9.3 10.4 11.4 13.1 12.7
0.0 0.0 0.0 0.0 0.0 0.0 0.0 0.0 0.0 0.1 3.0 3.6 6.8 9.4 10.1 11.4 8.1 7.7 7.2 12.1 13.3 5.4 7.4 3.3 0.8 0.9 0.9 1.2 0.5 2.3 3.5 5.7 4.5 4.1 5.4 7.2 9.1 7.0 10.3 10.4 9.9 12.1 10.1 11.2
0.0 0.0 0.0 0.0 0.0 0.0 0.1 0.1 1.0 2.2 2.7 2.6 8.2 10.1 7.8 10.2 9.1 10.6 6.8 5.8 4.2 5.2 1.5 1.5 1.2 1.4 1.2 0.7 1.4 1.5 3.1 6.0 3.9 6.7 8.9 6.3 11.6 15.3 11.8 8.1 9.1 12.0 19.0 17.4
0.0 0.0 0.1 0.2 1.0 2.5 5.0 5.3 4.6 3.6 6.3 8.5 10.2 12.4 12.4 12.2 11.8 12.1 6.7 2.8 2.9 1.8 0.9 0.6 1.0 1.4 0.7 0.6 1.0 3.5 6.5 9.2 9.8 7.6 7.8 13.5 16.3 12.6 14.4 16.6 16.1 18.0 21.6 18.5
2.2 3.9 5.3 4.3 3.1 4.1 4.9 5.2 3.2 6.9 7.3 11.1 16.2 17.0 14.2 8.5 9.6 9.3 9.0 4.3 3.4 2.5 2.1 2.5 1.5 3.4 2.6 5.1 2.5 8.4 4.8 5.7 7.6 8.1 9.0 12.2 13.2 18.9 20.0 17.6 18.5 19.8 19.9 21.4
5.8 5.6 6.2 7.2 6.6 6.5 6.2 6.9 10.5 9.1 13.0 12.4 13.5 10.9 7.6 6.7 4.6 5.0 6.1 1.5 2.2 4.2 2.4 3.4 4.9 4.9 5.7 11.2 10.0 11.5 11.4 11.7 12.4 11.8 12.1 16.8 15.5 24.0 14.5 14.5 16.7 18.0 22.9 17.0
6.0 4.5 5.9 6.1 5.5 3.8 5.3 6.7 4.3 6.1 10.5 9.0 9.5 11.1 5.6 8.6 11.3 3.8 3.1 6.0 6.3 13.3 12.4 7.6 9.2 6.2 7.1 13.1 12.5 14.1 13.7 15.3 15.9 18.3 9.4 9.2 23.1 16.9 13.3 19.7 13.5 16.4 18.9 16.1
4.6 4.1 3.8 4.6 3.4 4.3 3.4 2.7 4.2 5.3 4.8 4.5 4.8 3.4 2.2 3.5 8.5 5.8 6.9 6.9 6.9 5.4 8.4 7.0 6.8 7.5 16.8 17.8 16.2 16.0 15.8 14.2 15.7 20.1 15.7 20.7 18.8 25.3 20.7 16.2 20.0 20.2 21.5 19.6
3.3 3.9 3.3 2.7 3.0 2.7 2.5 2.8 3.8 4.8 4.7 9.1 7.6 12.5 12.8 6.5 6.1 5.4 6.5 6.9 4.8 6.5 6.1 13.3 18.0 18.4 17.9 13.5 15.1 15.3 11.4 8.6 13.4 13.7 16.4 15.6 15.4 13.0 16.9 14.9 18.7 22.3 28.3 31.6
3.2 1.3 2.4 2.3 2.5 2.8 3.1 3.5 5.1 6.8 6.3 10.9 10.7 13.4 6.6 9.5 11.2 7.9 8.8 13.0 12.2 13.7 14.0 15.7 13.9 10.3 8.9 14.3 12.7 11.8 11.6 11.7 10.5 10.0 17.4 22.1 21.2 27.5 25.9 25.1 26.3 27.1 25.4 24.5
Water_Equivalent
0.00 0.00 0.00 0.00 0.00 0.00 0.00 0.00 0.09 0.00 0.01 0.01 0.00 0.00 0.00 0.00 0.00 0.00 0.00 0.00 0.00 0.00 0.00 0.01 0.02 0.03 0.03 0.03 0.03 0.04 0.02 0.02 0.02 0.01 0.01 0.01 0.02 0.03 0.03 0.00 0.00 0.00 0.00 0.00
0.03 0.00 0.00 0.00 0.00 0.00 0.00 0.00 0.00 0.00 0.00 0.00 0.00 0.00 0.00 0.00 0.00 0.00 0.00 0.00 0.00 0.00 0.00 0.00 0.00 0.01 0.01 0.01 0.01 0.00 0.01 0.02 0.01 0.01 0.01 0.01 0.01 0.00 0.01 0.02 0.01 0.00 0.00 0.00
0.00 0.00 0.00 0.04 0.00 0.00 0.00 0.03 0.04 0.06 0.01 0.00 0.00 0.00 0.00 0.00 0.00 0.00 0.00 0.00 0.00 0.00 0.00 0.00 0.00 0.00 0.00 0.01 0.00 0.00 0.00 0.00 0.00 0.00 0.01 0.00 0.00 0.00 0.00 0.00 0.00 0.01 0.01 0.01
0.11 0.01 0.16 0.03 0.00 0.00 0.02 0.00 0.00 0.00 0.00 0.00 0.00 0.00 0.00 0.00 0.00 0.00 0.00 0.00 0.00 0.00 0.00 0.00 0.00 0.00 0.00 0.00 0.00 0.00 0.00 0.00 0.00 0.00 0.00 0.00 0.00 0.00 0.00 0.00 0.00 0.00 0.00 0.01
0.61 0.10 0.00 0.01 0.00 0.01 0.01 0.01 0.00 0.00 0.00 0.00 0.00 0.00 0.03 0.00 0.00 0.00 0.00 0.00 0.00 0.00 0.00 0.00 0.00 0.00 0.00 0.00 0.00 0.00 0.00 0.00 0.00 0.00 0.00 0.00 0.00 0.00 0.00 0.00 0.00 0.00 0.00 0.00
0.18 0.06 0.44 0.02 0.01 0.00 0.00 0.13 0.02 0.00 0.00 0.00 0.00 0.00 0.04 0.00 0.00 0.00 0.00 0.00 0.00 0.00 0.00 0.00 0.00 0.00 0.00 0.00 0.00 0.00 0.00 0.00 0.00 0.00 0.00 0.00 0.00 0.00 0.00 0.00 0.00 0.00 0.00 0.00
0.24 0.72 0.26 0.00 0.00 0.00 0.11 0.24 0.01 0.01 0.02 0.04 0.32 0.14 0.02 0.00 0.00 0.00 0.00 0.00 0.00 0.00 0.00 0.00 0.00 0.00 0.00 0.00 0.00 0.00 0.00 0.00 0.00 0.00 0.00 0.00 0.00 0.00 0.00 0.00 0.00 0.01 0.02 0.01
0.42 0.64 0.85 0.00 0.00 0.08 0.19 0.01 0.02 0.03 0.03 0.09 0.03 0.01 0.00 0.00 0.00 0.00 0.00 0.00 0.00 0.00 0.00 0.00 0.00 0.00 0.00 0.00 0.00 0.00 0.00 0.00 0.00 0.00 0.00 0.00 0.00 0.00 0.00 0.00 0.02 0.04 0.08 0.09
0.18 0.34 0.02 0.00 0.02 0.01 0.02 0.03 0.04 0.03 0.03 0.00 0.00 0.00 0.00 0.00 0.00 0.00 0.00 0.00 0.00 0.00 0.00 0.00 0.00 0.00 0.00 0.00 0.00 0.00 0.00 0.00 0.00 0.00 0.00 0.00 0.01 0.03 0.09 0.02 0.13 0.13 0.43 0.41
0.16 0.01 0.01 0.02 0.00 0.00 0.01 0.02 0.00 0.00 0.00 0.00 0.00 0.00 0.00 0.00 0.00 0.00 0.00 0.00 0.00 0.00 0.00 0.00 0.00 0.00 0.00 0.00 0.00 0.06 0.30 0.65 0.24 0.52 0.13 0.19 0.37 0.44 0.69 0.88 0.88 0.88 1.00 1.15
0.11 0.03 0.00 0.01 0.01 0.02 0.01 0.00 0.00 0.00 0.00 0.00 0.00 0.00 0.00 0.00 0.00 0.00 0.00 0.00 0.00 0.00 0.00 0.00 0.00 0.00 0.00 0.01 0.02 0.03 0.27 0.77 0.90 1.44 1.44 0.73 0.63 0.92 0.89 0.92 1.10 1.19 0.93 1.06
0.48 0.06 0.15 0.02 0.04 0.01 0.01 0.00 0.00 0.00 0.00 0.00 0.00 0.00 0.00 0.00 0.00 0.00 0.00 0.00 0.00 0.00 0.00 0.00 0.00 0.01 0.01 0.02 0.04 0.11 0.30 0.73 1.01 1.31 1.99 2.11 1.32 1.43 nan nan nan nan nan 2.15
0.13 0.00 0.00 0.00 0.00 0.00 0.00 0.00 0.00 0.00 0.00 0.00 0.00 0.00 0.00 0.01 0.02 nan 0.06 0.06 0.07 0.11 0.07 0.02 0.01 0.02 0.03 0.04 0.07 0.16 0.29 0.27 0.93 1.17 1.68 1.78 2.04 1.85 1.78 2.11 nan nan nan nan
0.00 0.00 0.00 0.00 0.00 0.00 0.00 0.00 0.00 0.00 0.00 0.00 0.00 0.00 0.00 0.03 0.61 1.24 1.17 0.76 0.48 0.30 0.30 0.45 0.48 0.60 0.59 0.39 0.38 0.48 0.62 0.47 1.11 1.21 1.69 2.10 2.28 2.24 2.09 1.96 1.98 2.02 nan nan
0.00 0.00 0.00 0.00 0.00 0.00 0.00 0.00 0.00 0.00 0.00 0.00 0.00 0.01 0.04 0.15 0.37 0.64 1.21 1.47 1.36 1.31 1.34 1.13 1.08 1.69 1.65 1.56 1.54 1.53 1.30 1.49 1.57 2.00 1.88 1.90 1.94 2.05 1.95 1.92 2.03 1.95 1.82 1.60
0.00 0.00 0.00 0.00 0.00 0.00 0.00 0.00 0.00 0.00 0.00 0.00 0.00 0.05 0.04 0.09 0.17 0.33 0.63 0.81 0.88 1.38 1.81 2.40 1.94 2.00 1.57 1.39 1.09 0.96 1.09 0.91 0.85 1.03 1.25 1.52 1.43 1.57 1.69 1.80 1.72 1.79 1.72 1.80
0.00 0.00 0.00 0.00 0.00 0.00 0.00 0.00 0.00 0.00 0.00 0.00 0.01 0.00 0.01 0.03 0.13 0.65 0.92 0.90 1.33 1.61 1.67 1.12 1.17 0.78 0.61 0.62 0.51 0.59 0.68 0.68 0.53 0.69 0.76 0.85 1.14 1.39 1.41 1.44 1.62 1.48 2.07 2.69
0.00 0.00 0.00 0.00 0.00 0.00 0.00 0.00 0.00 0.00 0.01 0.02 0.23 0.98 1.19 1.08 0.65 1.13 1.53 1.57 1.06 1.04 0.82 0.79 0.62 0.43 0.42 0.42 0.30 0.33 0.47 0.52 0.67 0.91 0.85 1.14 0.99 1.00 1.10 1.10 1.20 1.32 1.52 1.51
0.00 0.00 0.00 0.00 0.00 0.00 0.00 0.00 0.00 0.02 0.54 0.57 1.15 1.47 1.45 1.53 0.88 0.77 0.77 1.57 1.73 0.55 0.72 0.37 0.26 0.12 0.12 0.16 0.08 0.37 0.57 1.02 0.70 0.57 0.74 2.15 1.34 0.89 1.34 1.40 1.25 1.58 1.18 1.25
0.00 0.00 0.00 0.00 0.00 0.00 0.01 0.02 0.19 0.29 0.35 0.35 1.24 1.50 0.95 1.33 1.26 1.46 0.89 0.62 0.40 0.56 0.17 0.19 0.15 0.17 0.15 0.12 0.43 0.26 0.59 1.14 0.66 1.13 1.46 0.91 1.82 2.43 1.70 2.43 1.19 1.65 2.89 2.35
0.00 0.00 0.02 0.04 0.14 0.37 0.80 0.87 0.67 0.42 0.73 1.19 1.46 1.71 1.58 1.46 1.52 1.75 0.99 0.36 0.27 0.21 0.13 0.19 0.15 0.20 0.11 0.11 0.19 0.71 1.28 1.80 1.90 1.33 1.31 2.36 2.94 2.08 2.28 2.71 2.54 2.94 3.42 2.71
0.40 0.73 0.86 0.64 0.47 0.50 0.60 0.62 0.37 0.93 0.94 1.48 2.21 2.43 1.87 0.96 1.21 1.12 1.26 0.46 0.39 0.81 0.33 0.37 0.23 1.06 0.75 1.66 0.48 1.77 0.90 1.09 1.41 1.42 1.53 2.20 2.28 3.24 3.29 2.88 2.83 3.28 3.33 3.47
0.72 0.73 0.89 0.93 0.85 0.78 0.80 0.85 1.43 1.25 1.77 1.67 1.90 1.41 0.98 0.70 0.53 0.70 0.79 0.15 0.29 1.21 0.35 0.66 1.55 1.62 1.88 2.29 2.13 2.42 2.33 2.18 2.15 1.90 1.98 2.85 2.64 4.15 2.26 2.27 2.66 2.81 3.86 2.63
0.70 0.50 0.64 0.69 0.65 0.40 0.53 0.70 0.47 0.54 1.41 1.02 1.18 1.58 0.69 1.27 1.97 0.47 0.37 1.99 2.05 3.72 2.78 1.60 2.27 2.03 2.33 2.63 2.48 2.75 2.59 2.75 2.74 3.09 1.52 2.84 4.03 2.78 2.16 3.25 1.97 2.67 2.92 2.53
0.52 0.45 0.41 0.51 0.34 0.54 0.33 0.29 0.37 0.46 0.42 0.51 0.50 0.36 0.25 0.46 1.56 0.87 1.29 1.28 2.14 1.33 1.74 2.15 2.25 2.47 3.14 3.23 2.91 2.82 2.73 2.34 2.52 3.15 2.26 3.39 3.04 4.23 3.53 2.57 3.03 3.27 3.26 2.94
0.43 0.57 0.48 0.30 0.39 0.36 0.33 0.38 0.49 0.62 0.62 1.34 1.13 2.29 2.39 1.05 0.95 0.91 1.19 1.80 0.94 1.94 1.14 2.76 3.57 3.55 3.30 2.27 2.56 2.60 1.89 1.37 2.01 1.96 2.30 2.25 2.24 1.82 2.21 2.04 2.79 3.56 4.51 5.01
0.48 0.31 0.33 0.33 0.35 0.39 0.44 0.49 0.81 0.98 1.27 1.88 1.66 2.44 1.03 1.64 2.06 1.70 2.43 2.45 2.34 2.62 2.70 3.23 2.75 2.67 1.56 2.57 2.13 1.84 1.70 1.83 2.80 1.38 2.53 3.03 2.86 4.02 3.56 3.62 4.13 4.55 3.86 3.32
SL_Ratio
nan nan nan nan nan nan nan nan 4.1 nan 4.3 2.4 3.3 nan nan nan nan nan nan nan 0.0 3.8 3.3 2.6 2.9 4.1 4.6 4.7 4.7 4.9 5.1 5.5 5.6 5.7 5.5 5.0 4.7 4.9 4.7 5.0 nan nan nan nan
5.6 nan nan nan nan nan nan nan 6.7 5.7 5.0 nan nan nan nan nan nan nan nan nan nan nan nan nan nan 4.6 5.0 5.1 4.9 nan 4.9 5.5 5.7 5.7 5.7 6.2 5.9 4.0 3.2 3.5 4.8 nan nan 0.0
nan nan 5.0 4.1 nan nan 4.4 5.1 5.2 6.1 5.3 nan nan nan 4.7 nan nan nan nan nan nan nan nan nan nan nan nan 5.0 nan nan nan 3.3 nan 6.0 5.3 4.7 5.7 5.0 6.3 nan 0.0 4.6 5.2 5.9
3.4 3.8 5.0 6.1 nan nan 4.9 nan nan nan nan nan nan nan 5.0 nan nan nan nan nan nan nan nan nan nan nan nan nan nan 3.3 nan nan nan nan nan nan nan nan nan nan nan nan nan 3.3
4.8 4.1 nan 5.0 5.0 5.0 5.1 5.7 nan 0.0 nan nan nan nan 4.8 nan nan nan nan nan nan nan nan nan nan nan nan nan nan nan nan nan nan nan nan nan nan nan nan nan nan nan nan nan
3.8 6.5 5.0 5.4 3.1 nan nan 5.8 3.6 nan 10.0 10.0 nan 6.4 5.4 nan nan nan nan nan nan nan nan nan nan nan nan nan nan nan nan nan nan nan nan nan nan nan nan nan nan nan nan nan
4.8 5.5 5.4 4.0 nan nan 5.4 5.3 3.8 4.4 4.0 4.0 4.8 4.8 4.7 nan nan nan nan nan nan nan nan nan nan nan nan nan nan nan nan nan nan nan nan nan nan nan nan 10.0 3.3 2.9 3.0 3.0
4.7 4.8 6.0 nan nan 5.8 4.8 3.9 4.1 4.2 3.9 4.0 4.0 4.2 nan nan nan nan nan nan nan nan nan nan nan nan nan nan nan nan nan nan nan 10.0 10.0 nan nan nan 0.0 4.3 3.3 3.0 3.0 2.8
5.3 5.3 3.8 3.8 3.9 3.7 3.7 3.8 3.8 3.8 4.0 3.8 5.0 nan nan nan nan nan nan nan nan nan nan nan nan nan nan nan nan 3.3 0.0 nan 10.0 5.0 3.8 3.6 3.4 4.0 3.7 3.8 3.0 2.8 2.9 3.5
5.0 4.4 3.9 3.7 nan 4.0 3.8 3.6 nan nan nan nan nan nan nan nan nan nan nan nan nan nan nan nan nan nan nan nan 4.3 4.5 4.8 4.9 4.4 4.6 4.4 4.5 4.0 3.7 4.0 4.1 4.5 4.6 4.7 5.5
4.4 3.4 3.3 3.7 3.5 3.5 3.5 3.6 2.9 nan nan nan nan nan nan nan nan nan nan nan nan nan nan nan nan nan nan 4.2 4.5 4.5 5.3 5.1 4.8 4.5 5.4 5.7 5.6 5.5 5.1 5.2 4.5 5.2 5.1 5.1
4.7 4.2 4.1 3.8 2.8 2.7 3.1 5.0 nan nan nan nan nan nan nan nan nan nan nan nan nan nan 10.0 nan 6.0 5.2 5.2 4.7 4.9 5.4 5.4 5.7 5.7 5.6 5.1 5.3 5.8 6.1 nan nan nan nan nan 5.0
3.9 nan nan 2.5 nan nan nan 3.1 nan nan nan nan nan nan nan 3.8 3.6 nan 4.6 4.5 4.0 3.7 3.8 4.7 4.4 5.4 5.4 4.9 5.5 6.0 6.8 6.3 5.8 5.7 6.1 6.1 5.8 6.4 7.1 5.5 nan nan nan nan
nan nan nan nan nan nan nan nan nan nan nan nan nan nan nan 4.4 5.3 6.1 6.6 6.8 6.9 6.5 6.6 6.6 6.4 6.4 5.4 5.0 4.9 5.1 5.5 3.0 6.2 6.6 6.2 6.3 6.2 6.3 5.9 6.3 6.9 7.1 nan nan
nan nan nan nan nan nan nan nan nan nan nan nan nan 4.0 4.3 5.8 7.6 7.3 6.3 5.5 5.9 6.1 5.6 5.6 6.0 6.5 5.6 5.6 6.1 6.1 6.0 6.3 6.4 6.2 6.6 7.0 6.7 6.6 6.8 6.6 6.4 6.9 6.9 6.1
nan nan nan nan nan nan nan nan nan nan nan nan 4.5 5.0 4.6 5.1 6.4 7.0 7.7 7.4 7.3 7.2 7.0 6.5 6.5 7.0 7.0 6.9 7.4 7.1 7.4 3.7 6.3 7.5 7.6 8.0 8.3 8.1 8.2 7.8 7.8 7.4 7.4 7.7
nan nan nan nan nan nan nan nan nan nan nan nan 5.3 5.4 5.4 5.7 6.3 8.1 9.0 8.8 8.0 8.1 8.3 8.4 8.6 8.1 8.1 8.2 7.5 7.5 8.4 7.8 3.0 7.6 8.1 8.5 8.2 8.5 8.6 8.4 8.3 8.6 8.0 7.0
nan nan nan nan nan nan nan nan nan nan 5.3 5.1 6.1 6.2 6.3 6.5 8.6 8.8 8.8 8.1 8.3 8.5 9.3 9.1 8.9 8.8 8.7 7.6 8.0 7.0 7.1 7.1 7.1 7.0 7.3 7.2 8.1 8.4 8.2 8.4 8.7 8.6 8.6 8.4
nan 10.0 5.0 5.7 6.3 5.6 7.1 nan 5.0 5.0 5.5 6.2 5.9 6.4 7.0 7.5 9.3 10.0 9.4 7.7 7.7 9.8 10.3 9.0 3.0 7.1 7.3 7.5 6.3 6.3 6.2 5.6 6.3 7.2 7.2 3.4 6.8 7.9 7.7 7.4 7.9 7.6 8.6 8.9
nan nan nan nan nan nan 4.4 4.8 5.1 7.6 7.9 7.4 6.6 6.7 8.2 7.6 7.2 7.2 7.6 9.4 10.6 9.3 8.5 7.8 7.7 8.3 8.1 5.3 3.3 5.6 5.2 5.3 6.0 5.9 6.1 7.0 6.4 6.3 7.0 3.3 7.6 7.3 6.6 7.4
3.3 4.0 4.1 4.9 7.0 6.6 6.2 6.1 6.7 8.5 8.6 7.1 7.0 7.3 7.9 8.4 7.7 6.9 6.8 7.9 10.9 8.4 7.1 3.4 6.6 7.0 6.2 5.3 5.2 4.9 5.1 5.1 5.2 5.7 5.9 5.7 5.6 6.1 6.3 6.1 6.4 6.1 6.3 6.8
5.4 5.3 6.2 6.6 6.5 8.2 8.0 8.3 8.6 7.4 7.8 7.5 7.3 7.0 7.6 8.9 7.9 8.3 7.1 9.4 8.7 3.0 6.4 6.7 6.7 3.2 3.4 3.1 5.2 4.7 5.3 5.2 5.4 5.7 5.9 5.5 5.8 5.8 6.1 6.1 6.5 6.0 6.0 6.2
8.1 7.8 6.9 7.7 7.8 8.3 7.8 8.1 7.4 7.2 7.3 7.4 7.1 7.7 7.8 9.5 8.7 7.1 7.7 9.6 7.7 3.5 6.8 5.2 3.2 3.0 3.0 4.9 4.7 4.8 4.9 5.3 5.8 6.2 6.1 5.9 5.9 5.8 6.4 6.4 6.3 6.4 5.9 6.4
8.5 8.9 9.3 8.8 8.4 9.7 9.9 9.7 9.2 11.4 7.4 8.8 8.0 7.0 8.2 6.8 5.7 8.0 8.4 3.0 3.1 3.6 4.5 4.7 4.0 3.0 3.0 5.0 5.0 5.1 5.3 5.6 5.8 5.9 6.2 3.2 5.7 6.1 6.2 6.0 6.9 6.1 6.5 6.4
8.9 9.1 9.4 9.0 10.0 8.1 10.2 9.2 11.4 11.5 11.2 8.7 9.8 9.7 8.9 7.7 5.5 6.7 5.4 5.4 3.2 4.0 4.9 3.2 3.0 3.0 5.3 5.5 5.6 5.7 5.8 6.1 6.2 6.4 6.9 6.1 6.2 6.0 5.9 6.3 6.6 6.2 6.6 6.7
7.6 6.9 6.8 8.9 7.8 7.5 7.5 7.4 7.7 7.8 7.6 6.8 6.7 5.5 5.4 6.2 6.4 6.0 5.5 3.8 5.1 3.3 5.3 4.8 5.0 5.2 5.4 6.0 5.9 5.9 6.0 6.3 6.7 7.0 7.1 6.9 6.9 7.1 7.6 7.3 6.7 6.2 6.3 6.3
6.8 4.2 7.2 6.8 7.3 7.3 7.1 7.0 6.3 7.0 5.0 5.8 6.5 5.5 6.4 5.8 5.4 4.7 3.6 5.3 5.2 5.2 5.2 4.8 5.1 3.9 5.7 5.5 6.0 6.4 6.8 6.4 3.8 7.2 6.9 7.3 7.4 6.8 7.3 6.9 6.4 6.0 6.6 7.4